TimeCST,TemperatureF,Dew PointF,Humidity,Sea Level PressureIn,VisibilityMPH,Wind Direction,Wind SpeedMPH,Gust SpeedMPH,PrecipitationIn,Events,Conditions,WindDirDegrees,DateUTC
12:53 AM,39.9,37.9,93,30.30,10.0,NNE,5.8,-,N/A,,Clear,20,2013-01-07 06:53:00
1:53 AM,37.0,35.1,93,30.29,10.0,North,4.6,-,N/A,,Clear,360,2013-01-07 07:53:00
2:53 AM,34.0,33.1,96,30.28,8.0,North,3.5,-,N/A,,Clear,10,2013-01-07 08:53:00
3:53 AM,34.0,32.0,92,30.29,4.0,Calm,Calm,-,N/A,,Clear,0,2013-01-07 09:53:00
4:00 AM,32.0,30.2,93,30.28,1.5,Calm,Calm,-,N/A,,Clear,0,2013-01-07 10:00:00
4:10 AM,32.0,30.2,93,30.28,0.5,Calm,Calm,-,N/A,Fog,Fog,0,2013-01-07 10:10:00
4:34 AM,30.2,30.2,100,30.28,2.0,North,4.6,-,N/A,,Clear,360,2013-01-07 10:34:00
4:42 AM,32.0,30.2,93,30.28,6.0,NNE,4.6,-,N/A,,Clear,20,2013-01-07 10:42:00
4:53 AM,35.1,33.1,92,30.28,10.0,NNE,4.6,-,N/A,,Clear,30,2013-01-07 10:53:00
5:53 AM,34.0,32.0,92,30.28,10.0,NNE,4.6,-,N/A,,Clear,20,2013-01-07 11:53:00
6:53 AM,33.1,30.9,92,30.30,6.0,North,4.6,-,N/A,,Clear,360,2013-01-07 12:53:00
7:53 AM,37.9,36.0,93,30.32,7.0,Calm,Calm,-,N/A,,Clear,0,2013-01-07 13:53:00
8:53 AM,44.1,39.0,82,30.33,10.0,NNE,8.1,-,N/A,,Clear,30,2013-01-07 14:53:00
9:53 AM,51.1,37.9,61,30.32,10.0,ENE,9.2,-,N/A,,Clear,60,2013-01-07 15:53:00
10:53 AM,55.9,35.1,45,30.31,10.0,ENE,8.1,-,N/A,,Clear,60,2013-01-07 16:53:00
11:53 AM,57.9,34.0,41,30.27,10.0,Variable,4.6,-,N/A,,Clear,0,2013-01-07 17:53:00
1:53 PM,62.1,32.0,32,30.22,10.0,East,5.8,-,N/A,,Clear,80,2013-01-07 19:53:00
2:53 PM,63.0,30.9,30,30.22,10.0,ENE,5.8,-,N/A,,Clear,70,2013-01-07 20:53:00
3:53 PM,62.1,33.1,34,30.22,10.0,ENE,4.6,-,N/A,,Clear,70,2013-01-07 21:53:00
5:53 PM,48.9,42.1,77,30.24,10.0,Calm,Calm,-,N/A,,Mostly Cloudy,0,2013-01-07 23:53:00
6:53 PM,48.9,42.1,77,30.24,10.0,Calm,Calm,-,N/A,,Overcast,0,2013-01-08 00:53:00
7:53 PM,50.0,37.9,63,30.24,10.0,NE,4.6,-,N/A,,Clear,50,2013-01-08 01:53:00
8:53 PM,46.0,37.9,73,30.24,10.0,Calm,Calm,-,N/A,,Clear,0,2013-01-08 02:53:00
9:53 PM,44.1,39.0,82,30.23,10.0,Calm,Calm,-,N/A,,Clear,0,2013-01-08 03:53:00
10:53 PM,43.0,37.9,82,30.22,10.0,North,3.5,-,N/A,,Clear,360,2013-01-08 04:53:00
11:53 PM,41.0,37.9,89,30.21,10.0,Calm,Calm,-,N/A,,Clear,0,2013-01-08 05:53:00